VA3PC-13 Weather Reports


time (UTC)temp
F
wind
direction
speed
knots
gust
knots
rain 1hr
in
rain 24hr
in
rain mn
in
humidity
%
barometer
mb
20260510213518 40 251 0.0 1.7 0.01 0.06 0.04 83 987.4
20260510212519 42 105 0.0 1.7 0.01 0.08 0.04 80 987.5
20260510211519 45 237 2.6 5.2 0.00 0.10 0.03 67 986.8
20260510210519 45 132 0.9 5.2 0.00 0.14 0.03 66 986.3
20260510205519 45 123 2.6 6.1 0.00 0.18 0.03 70 986.1
20260510204519 45 117 2.6 6.1 0.00 0.22 0.03 70 986.0
20260510203519 45 126 1.7 5.2 0.00 0.25 0.03 67 986.1
20260510202536 44 120 1.7 6.1 0.00 0.27 0.03 70 985.6
20260510201520 43 120 1.7 5.2 0.00 0.28 0.03 71 985.5
20260510200519 42 107 0.9 1.7 0.00 0.28 0.03 75 985.9
20260510195520 42 102 0.9 2.6 0.00 0.28 0.03 73 986.3
20260510194517 42 243 0.9 3.5 0.00 0.28 0.03 74 986.5
20260510193517 43 253 3.5 7.0 0.00 0.28 0.03 74 986.4
20260510192517 44 160 2.6 6.1 0.00 0.28 0.03 69 985.7
20260510191520 44 187 1.7 5.2 0.00 0.28 0.03 67 985.5
20260510190520 45 250 1.7 3.5 0.00 0.28 0.03 64 985.7
20260510185517 46 251 0.9 3.5 0.00 0.29 0.03 61 985.7
20260510184538 47 293 0.9 2.6 0.00 0.29 0.03 59 984.0
20260510183519 47 273 1.7 4.3 0.00 0.29 0.03 52 984.6
20260510182518 47 259 1.7 3.5 0.00 0.33 0.03 51 984.6
20260510181541 47 283 1.7 3.5 0.00 0.34 0.03 50 984.5
20260510180518 47 280 1.7 3.5 0.00 0.34 0.03 51 984.4
20260510175519 47 266 0.9 2.6 0.00 0.34 0.03 53 984.2
20260510174518 48 252 1.7 6.1 0.00 0.34 0.03 53 983.7
20260510173519 46 290 1.7 3.5 0.00 0.34 0.03 53 983.7
20260510172520 46 270 1.7 3.5 0.00 0.34 0.03 56 984.1
20260510171520 46 259 0.9 3.5 0.00 0.34 0.03 56 984.2
20260510170519 45 267 0.9 2.6 0.00 0.34 0.03 58 984.2
20260510165520 45 277 1.7 3.5 0.00 0.34 0.03 60 984.3
20260510164516 45 269 0.9 3.5 0.00 0.34 0.03 61 984.4
20260510163519 47 257 1.7 4.3 0.00 0.34 0.03 58 984.3
20260510162519 47 264 1.7 5.2 0.00 0.34 0.03 58 983.5
20260510161541 46 313 1.7 4.3 0.00 0.34 0.03 60 983.3
20260510160520 46 305 1.7 6.1 0.00 0.34 0.03 59 983.3
20260510155517 45 295 1.7 4.3 0.00 0.34 0.03 61 983.6
20260510154517 45 351 1.7 4.3 0.00 0.34 0.03 63 983.4
20260510153520 46 275 0.9 4.3 0.00 0.34 0.03 64 983.2
20260510152521 45 285 1.7 6.1 0.00 0.34 0.03 68 982.5
20260510151517 43 278 1.7 5.2 0.00 0.34 0.03 70 982.9
20260510150517 44 268 1.7 3.5 0.00 0.34 0.03 71 983.0
20260510145538 43 317 1.7 3.5 0.00 0.34 0.03 73 982.4
20260510144518 43 324 1.7 5.2 0.00 0.34 0.03 75 982.8
20260510143521 43 332 1.7 3.5 0.00 0.34 0.03 75 982.5
20260510142518 42 274 1.7 3.5 0.00 0.34 0.03 78 981.8
20260510141529 41 286 0.9 3.5 0.00 0.34 0.03 80 982.4
20260510140530 41 279 1.7 3.5 0.00 0.34 0.03 83 982.2
20260510135531 41 271 0.9 2.6 0.00 0.34 0.03 86 982.0
20260510134530 41 267 1.7 3.5 0.01 0.34 0.03 85 982.0
20260510133530 40 299 0.9 2.6 0.01 0.34 0.03 89 982.1
20260510132530 40 290 0.9 2.6 0.01 0.34 0.03 90 981.9
20260510131532 39 312 1.7 2.6 0.01 0.34 0.03 92 981.9
20260510130531 39 43 0.0 1.7 0.01 0.34 0.03 93 981.8
20260510125614 39 287 0.9 4.3 0.02 0.34 0.03 91 981.8
20260510124531 39 329 0.9 2.6 0.02 0.33 0.02 92 981.6
20260510123537 39 275 0.9 2.6 0.02 0.33 0.02 94 981.4
20260510122531 39 10 0.9 2.6 0.02 0.33 0.02 93 981.2
20260510121531 39 252 0.0 1.7 0.02 0.33 0.02 93 981.1
20260510120531 39 343 0.0 0.9 0.02 0.33 0.02 92 981.0
20260510115531 40 232 0.0 0.0 0.01 0.31 0.01 91 980.8
20260510114531 40 71 0.0 1.7 0.00 0.31 0.00 90 980.6
20260510113517 40 222 0.9 3.5 0.00 0.31 0.00 89 980.4
20260510112517 40 304 0.0 0.0 0.00 0.31 0.00 89 980.3
20260510111519 40 0.0 0.0 0.00 0.31 0.00 88 980.1
20260510110517 40 264 0.9 1.7 0.00 0.31 0.00 87 979.8
20260510105517 40 293 0.9 1.7 0.00 0.31 0.00 86 979.6
20260510104537 40 2 0.0 1.7 0.00 0.31 0.00 86 979.4
20260510103538 40 314 0.0 1.7 0.00 0.31 0.00 86 979.2
20260510102518 40 285 0.9 1.7 0.00 0.31 0.00 87 979.0
20260510101539 40 276 0.9 2.6 0.00 0.31 0.00 86 978.9
20260510100518 41 296 0.9 2.6 0.00 0.31 0.00 86 978.6
20260510095518 41 262 0.9 2.6 0.00 0.31 0.00 85 978.5
20260510094518 41 321 0.9 2.6 0.00 0.31 0.00 86 978.3
20260510093534 41 273 0.9 3.5 0.00 0.31 0.00 86 978.2
20260510092517 41 279 0.9 2.6 0.00 0.31 0.00 87 978.0
20260510091516 41 290 0.9 3.5 0.00 0.31 0.00 87 977.9
20260510090521 41 289 0.9 2.6 0.00 0.31 0.00 87 977.8
20260510085521 41 311 0.9 2.6 0.00 0.31 0.00 87 977.7
20260510084518 41 272 0.9 2.6 0.00 0.31 0.00 85 977.6
20260510083517 41 283 0.9 2.6 0.00 0.31 0.00 86 977.4
20260510082517 41 279 0.9 3.5 0.00 0.31 0.00 87 977.3
20260510081517 41 266 0.9 3.5 0.00 0.31 0.00 88 977.0
20260510080538 42 299 0.9 3.5 0.00 0.31 0.00 89 976.8
20260510075518 42 291 0.9 2.6 0.00 0.31 0.00 88 976.6
20260510074541 42 337 0.9 2.6 0.00 0.31 0.00 91 976.4
20260510073519 42 301 0.9 3.5 0.00 0.31 0.00 89 976.2
20260510072518 42 319 0.9 2.6 0.00 0.31 0.00 90 976.0
20260510071518 41 286 0.9 3.5 0.00 0.31 0.00 91 975.8
20260510070518 41 312 0.9 2.6 0.00 0.31 0.00 93 975.6
20260510065539 41 296 0.9 1.7 0.00 0.31 0.00 93 975.4
20260510064518 41 295 0.0 1.7 0.00 0.31 0.00 93 975.4
20260510063518 41 278 0.0 2.6 0.00 0.31 0.00 93 975.3
20260510062519 42 296 0.9 3.5 0.00 0.31 0.00 92 975.1
20260510061519 42 286 0.9 1.7 0.00 0.31 0.00 91 974.9
20260510060539 42 267 0.9 2.6 0.00 0.31 0.00 92 974.8
20260510055520 42 277 0.0 2.6 0.00 0.31 0.00 91 974.6
20260510054539 42 267 0.9 2.6 0.00 0.31 0.00 91 974.4
20260510053521 42 274 0.0 1.7 0.00 0.31 0.00 92 974.3
20260510052519 42 289 0.0 2.6 0.00 0.31 0.00 92 974.1
20260510051538 41 182 0.9 2.6 0.00 0.31 0.00 93 973.9
20260510050520 41 69 0.0 2.6 0.00 0.31 0.00 93 973.8
20260510045520 41 70 0.0 1.7 0.00 0.31 0.00 93 973.7
20260510044520 41 131 0.0 1.7 0.00 0.31 0.00 93 973.7
20260510043517 41 323 0.9 2.6 0.00 0.31 0.00 94 973.3
20260510042517 41 219 0.0 1.7 0.00 0.31 0.00 95 973.2
20260510041518 41 93 0.0 1.7 0.00 0.31 0.00 96 973.0
20260510040520 41 149 0.0 0.9 0.00 0.31 0.00 97 972.9
20260510035538 41 188 0.0 0.0 0.00 0.31 0.31 96 973.0
20260510034517 42 105 0.0 2.6 0.00 0.31 0.31 96 973.2
20260510033518 42 0.0 0.0 0.00 0.31 0.31 96 973.0
20260510032538 42 95 0.0 0.9 0.00 0.31 0.31 95 972.9
20260510031521 43 46 0.0 1.7 0.00 0.31 0.31 94 972.8
20260510030519 43 334 0.9 1.7 0.00 0.31 0.31 93 972.8
20260510025538 44 348 0.9 1.7 0.00 0.31 0.31 92 972.8
20260510024519 44 302 0.9 2.6 0.00 0.31 0.31 94 972.5
20260510023518 44 259 0.0 1.7 0.00 0.31 0.31 96 972.3
20260510022520 45 67 0.0 1.7 0.00 0.31 0.31 96 972.3
20260510021519 45 111 0.0 1.7 0.00 0.31 0.31 96 972.1
20260510020539 45 246 0.0 1.7 0.00 0.31 0.31 96 972.0
20260510015520 45 77 0.0 2.6 0.00 0.31 0.31 95 972.0
20260510014519 46 126 0.0 0.9 0.00 0.31 0.31 94 971.9
20260510013519 46 352 0.0 1.7 0.00 0.31 0.31 94 971.7
20260510012516 46 8 0.9 1.7 0.00 0.31 0.31 93 971.5
20260510011520 46 301 0.9 2.6 0.00 0.31 0.31 93 971.3
20260510010520 46 246 0.9 2.6 0.00 0.31 0.31 94 971.0
20260510005520 46 157 0.9 3.5 0.00 0.31 0.31 95 970.8
20260510004517 47 195 0.9 2.6 0.00 0.31 0.31 95 970.5
20260510003518 47 196 0.9 1.7 0.00 0.31 0.31 95 970.3
20260510002517 47 201 0.9 1.7 0.00 0.31 0.31 95 970.2
20260510001522 47 215 0.9 2.6 0.00 0.31 0.31 95 970.0
20260510000518 47 190 0.9 2.6 0.00 0.31 0.31 96 969.8
20260509235518 47 181 0.9 1.7 0.00 0.31 0.31 95 969.7
20260509234518 48 218 0.9 2.6 0.00 0.31 0.31 95 969.6
20260509233520 48 203 0.9 3.5 0.00 0.31 0.31 94 969.4
20260509232538 48 181 0.9 1.7 0.00 0.31 0.31 95 969.2
20260509231539 48 177 0.9 1.7 0.00 0.31 0.31 95 969.0
20260509230539 48 178 0.9 2.6 0.00 0.31 0.31 95 968.9
20260509225519 49 168 0.9 2.6 0.00 0.31 0.31 96 968.8
20260509224520 49 160 0.9 1.7 0.00 0.31 0.31 95 968.7
20260509223519 49 173 1.7 4.3 0.02 0.31 0.31 95 968.8
20260509222540 49 201 0.9 3.5 0.03 0.31 0.31 96 968.8
20260509221540 49 135 0.9 4.3 0.07 0.31 0.31 96 968.7
20260509220543 49 143 0.9 2.6 0.11 0.31 0.31 97 968.7
20260509215520 49 146 0.9 1.7 0.15 0.31 0.31 97 968.7
20260509214520 49 135 0.0 1.7 0.19 0.31 0.31 97 968.8